Regional Weather Roundup
Issued by NWS

Home | Current Version | Previous Version | Graphics & Text | Print | Product List | Glossary On
Versions: 1 2 3 4 5 6 7 8 9 10 11 12 13 14 15 16 17 18 19 20 21 22 23 24 25 26 27 28 29 30 31 32 33 34 35 36 37 38 39 40 41 42 43 44 45 46 47 48 49 50
000
ASUS43 KLOT 261803
RWRIL

ILLINOIS REGIONAL WEATHER ROUNDUP
NATIONAL WEATHER SERVICE CHICAGO/ROMEOVILLE IL
100 PM CDT THU MAY 26 2016

NOTE: "FAIR" INDICATES FEW OR NO CLOUDS BELOW 12,000 FEET WITH NO
SIGNIFICANT WEATHER AND/OR OBSTRUCTIONS TO VISIBILITY.

* THESE STATIONS ARE NOT UNDER NWS QUALITY CONTROL. THEY ALSO MAY NOT
  REPORT WEATHER SUCH AS PRECIPITATION OR FOG.

ILZ001-002-007-009-015-016-024-261900-
NORTHWEST ILLINOIS

CITY           SKY/WX    TMP DP  RH WIND       PRES   REMARKS
MOLINE         PTSUNNY   85  64  49 SW8G21    29.87F HX  86
6HR MIN TEMP:  66; 6HR MAX TEMP:  86; 6HR PCP: TRACE;

STERLING*      MOSUNNY   80  65  59 VRB6      29.89F HX  82
$$

ILZ003-004-008-010-011-017-018-261900-
NORTH CENTRAL ILLINOIS

CITY           SKY/WX    TMP DP  RH WIND       PRES   REMARKS
ROCKFORD       PTSUNNY   79  64  60 VRB7G17   29.89F HX  81
6HR MIN TEMP:  65; 6HR MAX TEMP:  79; 6HR PCP:  0.30;

FREEPORT*      MOSUNNY   78  64  62 SW10G17   29.91F
$$

ILZ005-006-012>014-019>023-261900-
NORTHEAST ILLINOIS

CITY           SKY/WX    TMP DP  RH WIND       PRES   REMARKS
CHICAGO-OHARE  PTSUNNY   78  64  61 S7        29.88F HX  80
6HR MIN TEMP:  69; 6HR MAX TEMP:  78;

CHICAGO-MIDWAY CLOUDY    78  64  61 SW9       29.89F HX  80
6HR MIN TEMP:  70; 6HR MAX TEMP:  78; 6HR PCP: TRACE;

AURORA         MOSUNNY   79  66  64 S12       29.90F HX  81
6HR MIN TEMP:  69; 6HR MAX TEMP:  79; 6HR PCP:  0.01;

LANSING*       PTSUNNY   78  68  71 S9        29.91F HX  80
WAUKEGAN       MOSUNNY   80  64  58 SW9       29.87F HX  82
6HR MIN TEMP:  67; 6HR MAX TEMP:  80; 6HR PCP:  0.01;

DUPAGE AIRPORT MOSUNNY   77  62  59 S12       29.89F
6HR MIN TEMP:  68; 6HR MAX TEMP:  78;

WHEELING       MOSUNNY   79  61  53 SW8       29.89F HX  80
6HR MIN TEMP:  69; 6HR MAX TEMP:  79;

NORTHERLY ISL    N/A     76  64  66 S6          N/A
NORTHERLY ISL    N/A     76  64  66 S6          N/A
$$

LMZ740>746-261900-
SOUTHERN LAKE MICHIGAN

STATION/POSITION SKY/WX   TEMP    WIND        PRES    VSBY  WAVE
                          AIR SEA DIR/SP/G                  HT/PER
                          (F)     (DEG/KT/KT) (MB)    (MI)  (FT/S)
SOUTHERN BUOY              54 49  170/ 12/ 14 1012.5          1/ 3
WILMETTE HARBOR            62 56  180/ 10/ 12   N/A           1
HARRISON CRIB              73     200/ 13/ 14   N/A
BURNHAM HARBOR             77     220/  4/ 10   N/A
CALUMET HARBOR             73     190/  8/ 12 1012.9F
BURNS HARBOR               75     170/ 10/ 19 1013.5F
MICHIGAN CITY              74     160/ 15/ 17   N/A
MICHIGAN CITY 6N           68 58  190/ 12/ 16   N/A           1
ST. JOSEPH                 67 60  190/  8/ 10   N/A           1
$$

ILZ025>027-034>036-040-047-049-050-058-095>099-261900-
WEST-CENTRAL ILLINOIS

CITY           SKY/WX    TMP DP  RH WIND       PRES   REMARKS
QUINCY         SUNNY     80  65  59 SW8       29.91R HX  82
MACOMB*        MOSUNNY   80  66  62 S8        29.93R HX  82
$$

ILZ028>032-037-038-041>044-048-051>054-059>061-261900-
CENTRAL ILLINOIS

CITY           SKY/WX    TMP DP  RH WIND       PRES   REMARKS
BLOOMINGTON    CLOUDY    78  66  66 SW7       29.93F HX  80
DECATUR        CLOUDY    80  66  62 S16       29.92R HX  82
PEORIA         MOSUNNY   80  65  59 SW6       29.91S HX  82
6HR MIN TEMP:  66; 6HR MAX TEMP:  80; 6HR PCP:  0.12;

SPRINGFIELD    SUNNY     81  65  58 S17       29.91S HX  83
6HR MIN TEMP:  66; 6HR MAX TEMP:  82; 6HR PCP:  0.48;

TAYLORVILLE    NOT AVBL
$$

ILZ033-039-045-046-055>057-062-063-261900-
EAST-CENTRAL ILLINOIS

CITY           SKY/WX    TMP DP  RH WIND       PRES   REMARKS
CHAMPAIGN      CLOUDY    81  62  52 S12       29.92F HX  82
MATTOON        CLOUDY    75  65  70 S10       29.93S
$$

ILZ079-100>102-261900-
SOUTHWEST ILLINOIS

CITY           SKY/WX    TMP DP  RH WIND       PRES   REMARKS
CAHOKIA*       CLOUDY    71  65  81 SE8G23    29.95F
SPARTA*        CLOUDY    66  65  96 SE14G21   30.01F
$$

ILZ064>066-069>071-074>076-080>082-084>086-088>090-092>094-261900-
SOUTH-CENTRAL ILLINOIS

CITY           SKY/WX    TMP DP  RH WIND       PRES   REMARKS
CARBONDALE     TSTM      66  63  90 E12       30.00F FOG
6HR MIN TEMP:  66; 6HR MAX TEMP:  75; 6HR PCP:  0.98;

MARION         CLOUDY    66  64  94 SE9       30.05F THUNDER
MT. VERNON     CLOUDY    68  63  83 SW12      30.03R
SALEM*         CLOUDY    72  66  81 S14G20    29.99R
$$

ILZ067-068-072-073-078-083-087-091-261900-
SOUTHEAST ILLINOIS

CITY           SKY/WX    TMP DP  RH WIND       PRES   REMARKS
LAWRENCEVILLE  CLOUDY    70  66  87 SE12      29.96F
FLORA*         CLOUDY    71  67  88 S12       29.98R
HARRISBURG*    RAIN      67  66  98 S10       30.08R
ROBINSON*      CLOUDY    69  65  87 E3        29.97R
$$

ABBREVIATIONS USED IN REMARKS
   TC - TEMPERATURE IN CELSIUS
  WCI - WIND CHILL INDEX
   HX - HEAT INDEX
  VSB - VISIBILITY
$$





USA.gov is the U.S. government's official web portal to all federal, state and local government web resources and services.